This is the latest recevied weather packets stored in our database for station/object WA1TYB-13. If no packets are shown the sender has not sent any weather packets the latest 10 day(s).
| Time | Temp. | Humidity | Pressure | Rain* | Wind** | Luminosity | Snow |
|---|---|---|---|---|---|---|---|
| 1778263206 | 18.33° C | 46% | 1015.4 hPa | 0 mm | - | 689 W/m² | - |
| 1778262902 | 17.78° C | 43% | 1015.6 hPa | 0 mm | - | 688 W/m² | - |
| 1778262600 | 18.33° C | 44% | 1015.6 hPa | 0 mm | - | 675 W/m² | - |
| 1778262297 | 17.78° C | 44% | 1015.9 hPa | 0 mm | - | 700 W/m² | - |
| 1778261994 | 17.78° C | 46% | 1015.8 hPa | 0 mm | - | 713 W/m² | - |
| 1778261691 | 17.22° C | 46% | 1016 hPa | 0 mm | - | 715 W/m² | - |
| 1778261387 | 17.22° C | 48% | 1016 hPa | 0 mm | - | 661 W/m² | - |
| 1778261084 | 17.78° C | 47% | 1015.9 hPa | 0 mm | - | 719 W/m² | - |
| 1778260780 | 17.22° C | 49% | 1016 hPa | 0 mm | - | 706 W/m² | - |
| 1778260477 | 17.22° C | 52% | 1016.2 hPa | 0 mm | - | 683 W/m² | - |
| 1778260174 | 17.22° C | 50% | 1015.9 hPa | 0 mm | - | 684 W/m² | - |
| 1778259871 | 17.22° C | 50% | 1016.1 hPa | 0 mm | - | 661 W/m² | - |
| 1778259568 | 16.67° C | 52% | 1016.2 hPa | 0 mm | - | 682 W/m² | - |
| 1778259266 | 16.11° C | 52% | 1016.1 hPa | 0 mm | - | 642 W/m² | - |
| 1778258961 | 16.11° C | 54% | 1016.2 hPa | 0 mm | - | 613 W/m² | - |
| 1778258659 | 16.11° C | 53% | 1016.2 hPa | 0 mm | - | 632 W/m² | - |
| 1778258356 | 16.11° C | 54% | 1016.3 hPa | 0 mm | - | 615 W/m² | - |
| 1778258054 | 16.11° C | 55% | 1016.5 hPa | 0 mm | - | 522 W/m² | - |
| 1778257748 | 16.11° C | 55% | 1016.5 hPa | 0 mm | - | 511 W/m² | - |
| 1778257447 | 15.56° C | 56% | 1016.7 hPa | 0 mm | - | 643 W/m² | - |
| 1778257143 | 15.56° C | 57% | 1016.6 hPa | 0 mm | - | 573 W/m² | - |
| 1778256841 | 15° C | 59% | 1016.7 hPa | 0 mm | - | 563 W/m² | - |
| 1778256538 | 15° C | 58% | 1016.5 hPa | 0 mm | - | 551 W/m² | - |
| 1778256236 | 15° C | 57% | 1016.8 hPa | 0 mm | - | 543 W/m² | - |
| 1778255932 | 14.44° C | 58% | 1016.7 hPa | 0 mm | - | 506 W/m² | - |
* Rain latest hour (hover to see other rain measurements)
** Current wind speed in m/s (hover to see current wind gust speed)